Location: Alafon
(8.4500°N, 4.2333°E)
Time: 20:08:45
(UTC+00:00)

Vanguard 2 - Pass Details

Date: 10 August 2021
Orbit: 553 x 2937 km, 32.9° (Epoch: 27 September)

Event Time Altitude Azimuth Distance (km) Brightness Sun altitude
Rises 00:25:42 0° 270° (W) 4,476 - -64.3°
Reaches altitude 10° 00:30:28 10° 288° (WNW) 2,997 - -63.8°
Maximum altitude 00:34:41 17° 326° (NW) 2,136 - -63.4°
Drops below altitude 10° 00:38:02 10° 6° (N) 2,266 - -63.1°
Sets 00:40:57 0° 29° (NNE) 2,960 - -62.7°
